Vertical_Velocity
16 42 20 13 -6 0 -6 -3 -1 -4 1 -7 1 -2 -2 -2 -2 -1 1 -2 -3 -3 -3 -2 -1 -1 -1 -1 -1 -1 0 -0 -1 -1 -1 -1 -2 -2 -2 -1 -1 -1 -1 1
23 17 13 3 -8 -8 -8 3 -3 -1 1 -7 0 0 -1 -1 -1 -2 -2 -1 0 -0 -0 -0 -0 -2 -2 -2 -1 -1 -1 -1 -1 -1 -1 -0 -0 -0 -0 -1 -1 -1 -1 0
-40 -11 6 -6 -7 12 22 0 -4 4 1 0 -2 -5 -1 -0 -2 -1 -1 -1 -1 -1 0 -2 -2 -2 -2 -2 -2 -2 0 1 1 0 -1 -1 -1 -1 -2 0 2 -0 2 0
41 5 4 -6 -4 5 18 -2 -5 1 -3 -2 1 -5 1 -6 -6 2 -1 -3 -3 -2 -2 -3 -3 -1 -1 -0 0 1 0 -0 0 1 1 1 0 -1 -2 -2 -1 -3 -0 -1
-10 2 1 -9 -8 -0 1 -4 -8 -6 -5 34 7 30 42 15 0 -9 -2 -5 -6 -6 -6 -2 -2 -4 -3 -3 -3 -2 -2 -1 -2 -2 -1 1 -1 -2 -0 -1 0 1 -2 1
-8 2 -1 -3 -4 -2 -4 -5 2 -1 25 -17 11 13 -7 -23 -3 17 2 -10 -6 -3 -3 -2 -4 -4 -3 -2 -4 -3 -1 -2 -2 -2 -1 -2 -1 0 -0 -2 0 0 -0 -1
6 -1 -9 -3 -4 -3 -2 13 -17 -4 -14 15 1 6 2 -0 8 11 11 6 -2 -7 -4 -3 3 2 2 0 1 2 2 1 2 3 2 3 3 1 0 1 1 -0 -1 -1
43 6 -7 -4 -3 -2 10 6 30 27 -25 44 -19 22 -1 -13 1 -6 -4 -2 -2 4 0 2 -3 -4 -0 1 1 -1 -0 1 2 1 0 -0 0 2 1 0 -2 -1 0 2
16 10 -3 -4 -5 -3 -4 -8 10 -17 11 -13 27 6 4 -5 -5 -5 -2 -3 -1 4 -1 0 -1 -3 -2 -0 -0 1 -0 -1 -1 1 -1 -1 -1 -1 -2 -1 -1 1 3 0
-2 8 1 -5 -6 -4 -5 -7 -7 19 -0 -16 36 8 12 7 4 -5 -1 -3 -1 2 10 5 1 2 -0 -3 -2 -2 0 -1 -1 -1 2 3 3 5 4 2 0 -2 -3 -0
15 -7 -5 -7 -5 -3 0 17 11 0 -20 -5 -11 50 0 2 -2 -5 -3 -2 -5 -4 -3 -5 -4 4 -1 -5 1 0 0 1 0 -0 1 -0 2 2 1 1 -2 -1 0 -1
-7 5 29 31 -14 -4 -4 -3 -5 12 -3 17 -16 -18 -1 -10 -1 -2 2 0 -2 -1 1 2 -0 -0 5 -2 -0 0 0 1 1 1 -1 -2 -2 1 -1 0 -2 -3 1 -2
1 -9 8 14 5 -10 0 1 -2 -3 0 2 -5 10 6 1 -2 -2 -0 -2 -3 -2 0 1 0 -4 1 1 -2 -1 0 1 -1 -2 -2 -2 -2 -3 -2 -0 1 0 -3 -1
-4 -5 3 4 13 7 -5 -1 3 2 3 -1 3 -3 -3 2 -0 2 1 -2 -2 0 1 2 1 -2 -0 -0 1 -0 1 -2 1 0 -3 -3 -3 -3 -4 -7 -5 -3 -3 1
1 -1 -3 -1 -2 -2 -0 2 0 0 -1 -2 1 -1 6 -10 4 1 2 -0 0 -3 1 -1 1 -1 1 0 1 1 1 2 1 3 1 -2 -3 -2 -3 -5 -5 -3 -2 0
-0 -0 -1 -0 -1 4 -3 2 -2 0 0 0 4 18 -25 1 1 -1 -2 -4 -1 5 -9 4 -1 -5 0 -1 2 -5 3 -0 2 -1 -1 -1 -3 -1 0 -3 -2 0 -1 1
-1 1 -2 -3 -2 -3 -6 3 -0 -0 0 2 5 -14 6 -2 4 9 -5 -5 -1 1 -0 -7 5 -1 -3 -1 0 3 -2 -4 1 0 0 -1 -1 -0 1 -2 1 -3 -1 -2
1 -4 -3 -5 -2 -3 22 -2 0 2 2 -5 5 -3 2 -3 2 7 -20 1 2 1 4 0 -4 0 4 1 4 -3 0 -5 -7 -0 -4 -1 -1 -2 1 1 -3 0 -4 -4
3 -1 -2 -5 -2 -1 -2 -4 -5 4 10 -15 7 5 -1 -4 8 12 -24 -4 1 -4 0 3 -0 -2 1 2 -5 2 1 1 -2 -3 -6 -2 -0 -1 -1 -0 -1 -2 -1 -4
-3 -4 0 1 -1 -2 4 -18 13 2 7 -3 -7 -2 -0 2 2 3 6 2 1 -5 1 -1 5 3 -6 -3 3 -2 -1 -2 -2 4 1 -3 -1 -0 -1 -1 -1 -5 -6 3
0 3 -1 2 -1 1 -15 2 -1 1 4 -1 -2 -5 -1 -4 -5 -2 0 -3 5 1 1 3 2 2 1 -2 -2 -0 -1 0 -0 -1 2 -4 -1 3 5 1 -2 0 -4 -2
0 -3 3 -0 -1 9 -1 -7 15 -1 3 3 4 5 -2 1 1 -1 -0 -2 1 1 3 4 -2 1 3 -0 -6 1 1 2 1 0 3 -1 4 -12 16 -3 -2 4 8 -12
-4 -8 -3 0 4 -6 3 1 -16 1 2 0 0 0 -1 -1 -1 -1 -1 -1 2 -2 -1 0 1 -1 3 -0 1 0 3 -0 1 1 -1 3 -0 8 6 12 1 -2 -3 7
4 -8 3 -5 6 -12 11 -14 0 2 -0 0 -1 0 -4 -1 0 -0 1 -2 -2 -2 -1 -1 -1 -1 0 -1 0 -3 -3 -3 -0 0 1 -0 1 21 39 4 -1 -6 -0 1
4 3 -0 5 -2 9 -9 -5 8 -4 -2 -0 0 -2 -2 -3 -1 -3 -2 -1 -2 -2 -0 0 -1 -1 0 0 1 -1 -2 -3 0 -0 0 2 -4 7 -2 -2 -2 -5 1 -3
-2 -1 2 3 -18 18 0 -4 -4 -2 -3 -2 -1 -3 -3 -6 -4 -3 -2 -1 -1 -1 -1 0 -1 -2 -2 -1 -2 -2 -3 -0 -3 1 1 1 3 4 6 14 -5 -4 2 -3
Height
5934 5906 5934 5942 5940 5943 5945 5948 5947 5943 5941 5939 5940 5937 5936 5935 5934 5934 5933 5933 5932 5932 5932 5931 5931 5931 5931 5930 5930 5929 5929 5928 5929 5929 5928 5928 5926 5925 5924 5922 5921 5919 5918 5917
5936 5939 5940 5940 5940 5943 5946 5949 5948 5943 5944 5944 5944 5941 5939 5938 5937 5936 5936 5935 5935 5934 5934 5934 5933 5932 5932 5932 5931 5930 5930 5929 5929 5928 5927 5926 5924 5923 5922 5920 5918 5916 5915 5913
5928 5941 5941 5940 5943 5944 5947 5950 5947 5948 5945 5943 5944 5942 5941 5941 5939 5938 5937 5936 5936 5936 5936 5935 5935 5934 5933 5932 5932 5931 5930 5929 5928 5927 5926 5924 5923 5920 5919 5917 5916 5914 5912 5909
5940 5944 5942 5941 5945 5945 5941 5944 5946 5947 5945 5946 5946 5945 5943 5940 5939 5938 5937 5937 5936 5935 5935 5935 5934 5934 5933 5932 5931 5930 5929 5929 5928 5926 5925 5923 5921 5918 5916 5914 5911 5908 5906 5904
5942 5944 5942 5944 5945 5947 5946 5947 5948 5950 5951 5955 5952 5948 5944 5946 5943 5939 5938 5936 5936 5936 5935 5935 5934 5933 5932 5931 5930 5929 5927 5925 5923 5922 5919 5918 5916 5914 5912 5910 5908 5905 5902 5899
5942 5942 5943 5947 5945 5946 5948 5948 5950 5952 5949 5943 5951 5949 5943 5939 5942 5945 5943 5939 5937 5936 5935 5934 5933 5932 5932 5930 5929 5927 5925 5922 5921 5919 5917 5914 5911 5909 5906 5903 5902 5900 5897 5894
5942 5943 5944 5944 5946 5949 5949 5950 5948 5951 5950 5951 5950 5950 5944 5940 5940 5948 5945 5945 5939 5936 5933 5931 5931 5930 5929 5927 5925 5923 5921 5919 5917 5915 5912 5910 5907 5904 5901 5897 5894 5891 5888 5887
5946 5945 5943 5944 5945 5945 5953 5953 5954 5957 5953 5955 5950 5952 5943 5943 5944 5941 5941 5941 5941 5939 5936 5934 5929 5924 5923 5922 5921 5918 5916 5915 5913 5912 5910 5906 5903 5900 5896 5892 5888 5884 5881 5878
5949 5947 5945 5945 5946 5948 5949 5950 5952 5953 5956 5955 5954 5949 5949 5943 5941 5938 5938 5936 5935 5936 5934 5933 5929 5923 5919 5917 5915 5914 5911 5909 5908 5906 5903 5900 5896 5893 5889 5884 5880 5877 5873 5869
5938 5944 5947 5945 5946 5947 5947 5948 5951 5954 5952 5953 5951 5949 5943 5942 5939 5935 5935 5935 5933 5932 5933 5930 5925 5919 5913 5909 5907 5906 5904 5901 5898 5895 5893 5891 5888 5884 5880 5876 5872 5867 5863 5859
5948 5948 5948 5947 5947 5947 5949 5951 5951 5951 5950 5951 5951 5948 5943 5938 5935 5933 5930 5929 5927 5924 5922 5921 5918 5914 5908 5904 5902 5899 5897 5894 5891 5887 5884 5881 5877 5874 5870 5865 5861 5857 5853 5848
5943 5947 5946 5953 5945 5944 5942 5943 5944 5948 5948 5948 5945 5946 5940 5935 5932 5929 5926 5923 5920 5918 5916 5914 5910 5906 5904 5899 5895 5892 5889 5886 5883 5879 5875 5872 5868 5864 5858 5854 5849 5845 5842 5838
5943 5945 5950 5951 5947 5939 5942 5941 5939 5939 5942 5942 5942 5945 5938 5933 5928 5923 5921 5918 5915 5912 5910 5907 5903 5898 5895 5892 5887 5884 5881 5878 5873 5869 5864 5859 5855 5852 5847 5843 5837 5833 5828 5824
5936 5941 5946 5947 5945 5942 5939 5937 5938 5937 5938 5937 5938 5935 5932 5927 5922 5918 5914 5910 5907 5904 5901 5898 5894 5889 5885 5881 5878 5875 5871 5866 5862 5858 5852 5847 5842 5836 5832 5829 5824 5819 5814 5811
5933 5936 5938 5938 5937 5936 5935 5933 5932 5931 5931 5930 5930 5928 5924 5916 5915 5911 5907 5903 5899 5895 5891 5888 5883 5878 5875 5871 5868 5864 5859 5855 5851 5845 5840 5834 5828 5823 5818 5813 5809 5805 5800 5797
5931 5931 5929 5929 5929 5931 5930 5929 5926 5925 5924 5923 5923 5924 5910 5909 5907 5903 5900 5893 5890 5886 5879 5878 5873 5868 5865 5861 5858 5853 5848 5844 5840 5834 5827 5821 5814 5809 5804 5798 5794 5790 5786 5783
5928 5928 5926 5925 5924 5922 5922 5923 5921 5920 5918 5917 5914 5908 5906 5903 5900 5898 5891 5884 5880 5877 5871 5865 5864 5859 5855 5850 5846 5840 5835 5830 5826 5819 5814 5807 5801 5795 5791 5783 5780 5776 5773 5770
5924 5921 5920 5919 5920 5919 5923 5915 5912 5913 5911 5907 5905 5902 5899 5895 5891 5887 5878 5874 5872 5867 5863 5858 5852 5848 5844 5839 5833 5826 5822 5816 5810 5804 5797 5791 5785 5779 5776 5769 5765 5763 5759 5758
5919 5917 5916 5914 5914 5914 5913 5906 5905 5905 5904 5897 5897 5895 5890 5885 5882 5878 5868 5864 5861 5855 5852 5848 5843 5837 5832 5826 5819 5815 5809 5802 5796 5789 5782 5776 5770 5765 5761 5756 5751 5749 5747 5745
5913 5910 5910 5908 5906 5906 5906 5895 5899 5897 5894 5888 5885 5881 5877 5873 5868 5864 5860 5856 5852 5845 5841 5835 5831 5824 5817 5812 5807 5801 5794 5787 5780 5774 5769 5764 5759 5753 5748 5743 5740 5737 5736 5734
5910 5908 5905 5904 5900 5900 5891 5891 5889 5888 5886 5880 5875 5870 5865 5861 5857 5852 5847 5841 5839 5834 5828 5823 5817 5810 5805 5799 5793 5787 5781 5773 5767 5763 5757 5752 5746 5740 5735 5731 5729 5725 5724 5722
5899 5897 5897 5896 5893 5892 5884 5883 5882 5877 5874 5870 5865 5861 5856 5852 5847 5842 5837 5832 5826 5821 5815 5810 5803 5797 5792 5785 5779 5773 5767 5762 5755 5748 5744 5737 5734 5729 5723 5721 5716 5713 5708 5711
5889 5888 5888 5888 5884 5879 5877 5874 5868 5866 5863 5857 5854 5849 5844 5840 5835 5829 5824 5819 5813 5807 5802 5796 5791 5786 5780 5773 5767 5760 5754 5748 5741 5735 5729 5724 5718 5714 5710 5706 5707 5704 5704 5704
5880 5877 5878 5876 5874 5868 5867 5863 5859 5858 5852 5848 5843 5838 5832 5827 5822 5816 5811 5806 5801 5795 5790 5784 5778 5772 5766 5760 5753 5747 5741 5734 5728 5722 5717 5713 5708 5703 5694 5696 5697 5698 5694 5694
5872 5869 5868 5865 5862 5859 5855 5850 5849 5844 5840 5835 5830 5825 5819 5814 5809 5804 5798 5793 5788 5782 5777 5771 5765 5760 5754 5748 5742 5735 5729 5723 5716 5710 5705 5700 5696 5692 5688 5688 5686 5686 5686 5686
5861 5860 5858 5854 5849 5849 5843 5839 5836 5832 5828 5823 5818 5813 5807 5801 5795 5791 5785 5781 5776 5770 5765 5759 5754 5749 5743 5737 5731 5725 5719 5712 5704 5699 5693 5688 5682 5678 5676 5676 5676 5675 5675 5676